Hourly Data Report for September 20, 2010

PETERBOROUGH AWOS
ONTARIO

44°14'00.000" N
78°22'00.000" W
191.40 m
6166420

Download Data

Hourly Data (September 2010)
Hourly Data Report for September 20, 2010
TIME
LST
Temp Definition
°C
Dew Point Definition
°C
Rel Hum Definition
%
Precip. Amount Definition
mm

Wind Dir Definition
10's deg

Wind Spd Definition
km/h
Visibility Definition
km
Stn Press Definition
kPa
Hmdx Definition


Wind Chill Definition


Weather Definition


00:00 9.4 6.8 84   LegendMM LegendMM 15.0 99.84      
01:00 9.6 6.9 83   LegendMM LegendMM 15.0 99.83      
02:00 8.3 6.6 89   LegendMM LegendMM 15.0 99.81      
03:00 3.9 3.7 99   LegendMM LegendMM 15.0 99.82      
04:00 4.7 4.7 100   LegendMM LegendMM 15.0 99.82      
05:00 2.7 2.4 98   LegendMM LegendMM 15.0 99.85      
06:00 3.1 3.1 100   LegendMM LegendMM 0.5 99.89      
07:00 4.8 4.7 99   LegendMM LegendMM 15.0 99.94      
08:00 9.5 8.1 91   LegendMM LegendMM 15.0 99.92      
09:00 13.4 9.1 75   LegendMM LegendMM 15.0 99.95      
10:00 15.3 6.6 56   LegendMM LegendMM 15.0 99.96      
11:00 17.4 5.6 46   LegendMM LegendMM 15.0 99.92      
12:00 17.0 4.9 45   LegendMM LegendMM 15.0 99.87      
13:00 18.2 4.0 39   LegendMM LegendMM 15.0 99.82      
14:00 18.5 4.7 40   LegendMM LegendMM 15.0 99.77      
15:00 18.7 4.6 39   LegendMM LegendMM 15.0 99.72      
16:00 19.0 6.0 43   LegendMM LegendMM 15.0 99.70      
17:00 18.1 4.7 41   LegendMM LegendMM 15.0 99.71      
18:00 13.1 8.7 75   LegendMM LegendMM 15.0 99.72      
19:00 11.6 7.9 78   LegendMM LegendMM 15.0 99.76      
20:00 9.6 8.6 93   LegendMM LegendMM 15.0 99.79      
21:00 7.2 6.8 97   LegendMM LegendMM 15.0 99.79      
22:00 6.7 6.3 97   LegendMM LegendMM 15.0 99.81      
23:00 5.3 5.1 99   LegendMM LegendMM 15.0 99.80      

Notes on Data Quality.

Legend

  • E = Estimated
  • M = Missing
  • NA = Not Available*
  • [empty] = Indicates an unobserved value
Date modified: